Regional Weather Roundup
Issued by NWS

Home | Current Version | Previous Version | Graphics & Text | Print | Product List | Glossary On
Versions: 1 2 3 4 5 6 7 8 9 10 11 12 13 14 15 16 17 18 19 20 21 22 23 24 25 26 27 28 29 30 31 32 33 34 35 36 37 38 39 40 41 42 43 44 45 46 47 48 49 50
000
ASUS43 KFSD 210602
RWRSD

WEATHER ROUNDUP FOR SOUTH DAKOTA
NATIONAL WEATHER SERVICE SIOUX FALLS SD
100 AM CDT THU AUG 21 2014

NOTE: "FAIR" INDICATES FEW OR NO CLOUDS BELOW 12,000 FEET WITH NO
SIGNIFICANT WEATHER AND/OR OBSTRUCTIONS TO VISIBILITY.


SDZ001>005-009-010-012>017-210700-
NORTHWEST AND NORTH CENTRAL SOUTH DAKOTA

CITY           SKY/WX    TMP DP  RH WIND       PRES   REMARKS
BUFFALO          N/A     62  57  83 NW6       29.79R
FAITH            N/A     62  61  96 N9        29.80R
MOBRIDGE       PTCLDY    65  64  97 CALM      29.68F
$$

SDZ012>016-024>037-041>051-057-063-072>074-210700-
SOUTHWEST AND SOUTH CENTRAL SOUTH DAKOTA

CITY           SKY/WX    TMP DP  RH WIND       PRES   REMARKS
RAPID CTY ARPT CLEAR     63  57  81 N9        29.84R
PIERRE         PTCLDY    72  71  97 NE10      29.68R
CUSTER         PTCLDY    63  48  58 NW6       29.98R
ELLSWORTH AFB  CLEAR     69  58  67 N12       29.84R
PHILIP         CLEAR     68  62  81 NW6       29.77R
PINE RIDGE     CLEAR     61  57  87 CALM      29.84R
WINNER         FAIR      78  70  76 W12G18    29.72R
$$

SDZ004>011-016>023-039-040-210700-
NORTHEAST SOUTH DAKOTA

CITY           SKY/WX    TMP DP  RH WIND       PRES   REMARKS
ABERDEEN       TSTM      65  65 100 W21G30    29.79R FOG
WATERTOWN      CLOUDY    71  69  93 S8        29.70F
SISSETON         N/A     73  70  90 SE10      29.72F
$$

SDZ017-020-022-023-036>040-048>070-210700-
SOUTHEAST SOUTH DAKOTA

CITY           SKY/WX    TMP DP  RH WIND       PRES   REMARKS
SIOUX FALLS    FAIR      77  73  87 S10       29.72F
HURON          PTCLDY    74  71  91 SE7       29.67F
CHAMBERLAIN    CLEAR     72  72  99 E6        29.68S
MITCHELL       PTCLDY    75  73  93 S8        29.68F
YANKTON        FAIR      77  73  88 SE10      29.71R
$$

ABBREVIATIONS USED IN REMARKS
   TC - TEMPERATURE IN CELSIUS
  WCI - WIND CHILL INDEX
   HX - HEAT INDEX
  VSB - VISIBILITY



USA.gov is the U.S. government's official web portal to all federal, state and local government web resources and services.